Time,TemperatureF,DewpointF,PressureIn,WindDirection,WindDirectionDegrees,WindSpeedMPH,WindSpeedGustMPH,Humidity,HourlyPrecipIn,Conditions,Clouds,dailyrainin,SoftwareType,DateUTC
2013-05-18 00:06:00,51.6,48.0,30.18,SW,214,0.0,1.0,86,0.00,,,0.00,weatherlink.com 1.10,2013-05-18 04:06:00,
2013-05-18 00:21:00,51.9,48.0,30.18,SSW,213,0.0,0.0,86,0.00,,,0.00,weatherlink.com 1.10,2013-05-18 04:21:00,
2013-05-18 00:36:00,53.1,49.0,30.18,SW,214,0.0,1.0,85,0.00,,,0.00,weatherlink.com 1.10,2013-05-18 04:36:00,
2013-05-18 00:51:00,52.9,49.0,30.18,SW,214,0.0,0.0,86,0.00,,,0.00,weatherlink.com 1.10,2013-05-18 04:51:00,
2013-05-18 01:06:00,52.2,48.0,30.18,SW,214,0.0,1.0,86,0.00,,,0.00,weatherlink.com 1.10,2013-05-18 05:06:00,
2013-05-18 01:22:00,52.2,48.0,30.18,SW,214,0.0,0.0,86,0.00,,,0.00,weatherlink.com 1.10,2013-05-18 05:22:00,
2013-05-18 01:37:00,52.9,49.0,30.18,SW,214,0.0,1.0,86,0.00,,,0.00,weatherlink.com 1.10,2013-05-18 05:37:00,
2013-05-18 01:52:00,52.9,49.0,30.18,SW,214,0.0,0.0,86,0.00,,,0.00,weatherlink.com 1.10,2013-05-18 05:52:00,
2013-05-18 02:07:00,53.3,49.0,30.18,SW,214,0.0,0.0,86,0.00,,,0.00,weatherlink.com 1.10,2013-05-18 06:07:00,
2013-05-18 02:22:00,53.7,50.0,30.18,SSW,213,0.0,1.0,86,0.00,,,0.00,weatherlink.com 1.10,2013-05-18 06:22:00,
2013-05-18 02:37:00,53.7,50.0,30.18,SW,214,0.0,1.0,86,0.00,,,0.00,weatherlink.com 1.10,2013-05-18 06:37:00,
2013-05-18 02:52:00,53.7,49.0,30.18,SW,214,0.0,1.0,85,0.00,,,0.00,weatherlink.com 1.10,2013-05-18 06:52:00,
2013-05-18 03:07:00,54.1,50.0,30.18,SW,214,0.0,0.0,86,0.00,,,0.00,weatherlink.com 1.10,2013-05-18 07:07:00,
2013-05-18 03:22:00,54.3,50.0,30.19,SW,214,0.0,0.0,86,0.00,,,0.00,weatherlink.com 1.10,2013-05-18 07:22:00,
2013-05-18 03:37:00,54.3,50.0,30.19,SW,214,0.0,1.0,85,0.00,,,0.00,weatherlink.com 1.10,2013-05-18 07:37:00,
2013-05-18 03:52:00,54.6,50.0,30.20,SW,222,0.0,1.0,85,0.00,,,0.00,weatherlink.com 1.10,2013-05-18 07:52:00,
2013-05-18 04:07:00,54.3,50.0,30.20,SW,222,0.0,1.0,85,0.00,,,0.00,weatherlink.com 1.10,2013-05-18 08:07:00,
2013-05-18 04:22:00,54.0,50.0,30.21,NNE,19,0.0,1.0,85,0.00,,,0.00,weatherlink.com 1.10,2013-05-18 08:22:00,
2013-05-18 04:37:00,53.6,50.0,30.21,North,4,0.0,0.0,86,0.00,,,0.00,weatherlink.com 1.10,2013-05-18 08:37:00,
2013-05-18 04:52:00,53.5,50.0,30.22,North,4,0.0,0.0,87,0.00,,,0.00,weatherlink.com 1.10,2013-05-18 08:52:00,
2013-05-18 05:07:00,53.1,49.0,30.22,North,4,0.0,0.0,87,0.00,,,0.00,weatherlink.com 1.10,2013-05-18 09:07:00,
2013-05-18 05:22:00,53.3,50.0,30.22,NNE,30,1.0,3.0,87,0.00,,,0.00,weatherlink.com 1.10,2013-05-18 09:22:00,
2013-05-18 05:37:00,54.0,50.0,30.22,NNE,30,0.0,2.0,86,0.00,,,0.00,weatherlink.com 1.10,2013-05-18 09:37:00,
2013-05-18 05:52:00,54.3,50.0,30.23,NE,51,0.0,1.0,85,0.00,,,0.00,weatherlink.com 1.10,2013-05-18 09:52:00,
2013-05-18 06:07:00,54.6,51.0,30.23,NE,51,0.0,1.0,86,0.00,,,0.00,weatherlink.com 1.10,2013-05-18 10:07:00,
2013-05-18 06:22:00,54.3,50.0,30.24,NE,51,0.0,1.0,86,0.00,,,0.00,weatherlink.com 1.10,2013-05-18 10:22:00,
2013-05-18 06:37:00,54.6,51.0,30.24,NE,51,0.0,1.0,86,0.00,,,0.00,weatherlink.com 1.10,2013-05-18 10:37:00,
2013-05-18 06:52:00,55.5,51.0,30.24,NE,51,0.0,1.0,85,0.00,,,0.00,weatherlink.com 1.10,2013-05-18 10:52:00,
2013-05-18 07:07:00,56.4,52.0,30.24,ESE,109,1.0,2.0,84,0.00,,,0.00,weatherlink.com 1.10,2013-05-18 11:07:00,
2013-05-18 07:22:00,57.2,52.0,30.25,ENE,58,1.0,1.0,84,0.00,,,0.00,weatherlink.com 1.10,2013-05-18 11:22:00,
2013-05-18 07:37:00,57.7,53.0,30.25,East,89,1.0,2.0,84,0.00,,,0.00,weatherlink.com 1.10,2013-05-18 11:37:00,
2013-05-18 07:52:00,58.6,54.0,30.25,ENE,70,1.0,2.0,83,0.00,,,0.00,weatherlink.com 1.10,2013-05-18 11:52:00,
2013-05-18 08:07:00,59.4,54.0,30.25,SE,143,0.0,3.0,82,0.00,,,0.00,weatherlink.com 1.10,2013-05-18 12:07:00,
2013-05-18 08:22:00,60.3,54.0,30.26,ESE,116,2.0,3.0,81,0.00,,,0.00,weatherlink.com 1.10,2013-05-18 12:22:00,
2013-05-18 08:37:00,61.1,55.0,30.26,SE,134,3.0,3.0,79,0.00,,,0.00,weatherlink.com 1.10,2013-05-18 12:37:00,
2013-05-18 08:52:00,61.7,55.0,30.26,SSW,197,3.0,6.0,78,0.00,,,0.00,weatherlink.com 1.10,2013-05-18 12:52:00,
2013-05-18 09:08:00,62.8,55.0,30.26,ESE,110,5.0,7.0,75,0.00,,,0.00,weatherlink.com 1.10,2013-05-18 13:08:00,
2013-05-18 09:23:00,63.4,55.0,30.26,ESE,112,4.0,8.0,74,0.00,,,0.00,weatherlink.com 1.10,2013-05-18 13:23:00,
2013-05-18 09:38:00,64.2,56.0,30.26,ESE,120,5.0,9.0,74,0.00,,,0.00,weatherlink.com 1.10,2013-05-18 13:38:00,
2013-05-18 09:53:00,65.2,55.0,30.26,SSE,163,3.0,8.0,70,0.00,,,0.00,weatherlink.com 1.10,2013-05-18 13:53:00,
2013-05-18 10:08:00,65.9,54.0,30.26,SE,136,3.0,9.0,65,0.00,,,0.00,weatherlink.com 1.10,2013-05-18 14:08:00,
2013-05-18 10:23:00,66.2,52.0,30.26,SE,124,5.0,13.0,60,0.00,,,0.00,weatherlink.com 1.10,2013-05-18 14:23:00,
2013-05-18 10:38:00,65.7,52.0,30.26,SSE,148,6.0,11.0,61,0.00,,,0.00,weatherlink.com 1.10,2013-05-18 14:38:00,
2013-05-18 10:53:00,65.2,51.0,30.27,SSE,166,5.0,11.0,60,0.00,,,0.00,weatherlink.com 1.10,2013-05-18 14:53:00,
2013-05-18 11:08:00,65.0,52.0,30.27,SE,136,5.0,10.0,62,0.00,,,0.00,weatherlink.com 1.10,2013-05-18 15:08:00,
2013-05-18 11:23:00,64.6,52.0,30.27,SE,140,5.0,8.0,63,0.00,,,0.00,weatherlink.com 1.10,2013-05-18 15:23:00,
2013-05-18 11:38:00,65.0,52.0,30.26,SE,132,5.0,9.0,64,0.00,,,0.00,weatherlink.com 1.10,2013-05-18 15:38:00,
2013-05-18 11:53:00,65.9,52.0,30.26,SSE,150,5.0,9.0,62,0.00,,,0.00,weatherlink.com 1.10,2013-05-18 15:53:00,
2013-05-18 12:08:00,66.3,51.0,30.26,ESE,112,9.0,11.0,59,0.00,,,0.00,weatherlink.com 1.10,2013-05-18 16:08:00,
2013-05-18 12:23:00,65.5,52.0,30.27,SE,129,4.0,9.0,63,0.00,,,0.00,weatherlink.com 1.10,2013-05-18 16:23:00,
2013-05-18 12:38:00,65.1,53.0,30.26,SSE,157,3.0,10.0,64,0.00,,,0.00,weatherlink.com 1.10,2013-05-18 16:38:00,
2013-05-18 12:53:00,65.4,51.0,30.25,South,186,7.0,12.0,60,0.00,,,0.00,weatherlink.com 1.10,2013-05-18 16:53:00,
2013-05-18 13:08:00,64.7,52.0,30.25,SSE,163,11.0,12.0,63,0.00,,,0.00,weatherlink.com 1.10,2013-05-18 17:08:00,
2013-05-18 13:23:00,64.4,53.0,30.25,SSE,148,6.0,11.0,67,0.00,,,0.00,weatherlink.com 1.10,2013-05-18 17:23:00,
2013-05-18 13:38:00,64.5,54.0,30.25,SSE,148,8.0,11.0,68,0.00,,,0.00,weatherlink.com 1.10,2013-05-18 17:38:00,
2013-05-18 13:53:00,64.2,54.0,30.25,SE,141,3.0,11.0,69,0.00,,,0.00,weatherlink.com 1.10,2013-05-18 17:53:00,
2013-05-18 14:08:00,63.5,54.0,30.25,SE,124,6.0,9.0,72,0.00,,,0.00,weatherlink.com 1.10,2013-05-18 18:08:00,
2013-05-18 14:23:00,63.8,54.0,30.25,ENE,77,7.0,10.0,71,0.00,,,0.00,weatherlink.com 1.10,2013-05-18 18:23:00,
2013-05-18 14:38:00,64.7,54.0,30.24,SE,139,7.0,7.0,69,0.00,,,0.00,weatherlink.com 1.10,2013-05-18 18:38:00,
2013-05-18 14:53:00,64.2,54.0,30.24,ESE,102,5.0,10.0,69,0.00,,,0.00,weatherlink.com 1.10,2013-05-18 18:53:00,
2013-05-18 15:08:00,63.6,54.0,30.24,SE,128,3.0,7.0,72,0.00,,,0.00,weatherlink.com 1.10,2013-05-18 19:08:00,
2013-05-18 15:23:00,62.9,55.0,30.25,East,101,5.0,7.0,74,0.00,,,0.00,weatherlink.com 1.10,2013-05-18 19:23:00,
2013-05-18 15:38:00,62.5,55.0,30.24,ESE,113,3.0,7.0,76,0.00,,,0.00,weatherlink.com 1.10,2013-05-18 19:38:00,
2013-05-18 15:53:00,62.2,55.0,30.24,East,91,4.0,8.0,76,0.00,,,0.00,weatherlink.com 1.10,2013-05-18 19:53:00,
2013-05-18 16:08:00,61.9,55.0,30.25,ESE,104,2.0,6.0,78,0.00,,,0.00,weatherlink.com 1.10,2013-05-18 20:08:00,
2013-05-18 16:23:00,61.7,55.0,30.25,ENE,74,3.0,6.0,79,0.00,,,0.00,weatherlink.com 1.10,2013-05-18 20:23:00,
2013-05-18 16:38:00,61.5,55.0,30.25,ENE,74,2.0,7.0,80,0.00,,,0.00,weatherlink.com 1.10,2013-05-18 20:38:00,
2013-05-18 16:53:00,61.5,56.0,30.25,East,92,4.0,6.0,81,0.00,,,0.00,weatherlink.com 1.10,2013-05-18 20:53:00,
2013-05-18 17:08:00,61.4,55.0,30.25,East,86,1.0,6.0,80,0.00,,,0.00,weatherlink.com 1.10,2013-05-18 21:08:00,
2013-05-18 17:23:00,61.1,56.0,30.25,East,86,3.0,4.0,82,0.00,,,0.00,weatherlink.com 1.10,2013-05-18 21:23:00,
2013-05-18 17:38:00,60.5,56.0,30.25,East,79,2.0,4.0,84,0.00,,,0.00,weatherlink.com 1.10,2013-05-18 21:38:00,
2013-05-18 17:53:00,60.2,56.0,30.25,ENE,72,2.0,5.0,85,0.00,,,0.00,weatherlink.com 1.10,2013-05-18 21:53:00,
2013-05-18 18:08:00,60.1,56.0,30.25,East,89,1.0,3.0,85,0.00,,,0.00,weatherlink.com 1.10,2013-05-18 22:08:00,
2013-05-18 18:23:00,60.2,56.0,30.25,ESE,103,4.0,5.0,85,0.00,,,0.00,weatherlink.com 1.10,2013-05-18 22:23:00,
2013-05-18 18:38:00,60.3,56.0,30.25,East,82,2.0,5.0,84,0.00,,,0.00,weatherlink.com 1.10,2013-05-18 22:38:00,
2013-05-18 18:53:00,60.4,56.0,30.25,East,98,4.0,6.0,85,0.00,,,0.00,weatherlink.com 1.10,2013-05-18 22:53:00,
2013-05-18 19:08:00,60.5,56.0,30.25,East,96,2.0,8.0,84,0.00,,,0.00,weatherlink.com 1.10,2013-05-18 23:08:00,
2013-05-18 19:23:00,60.5,56.0,30.25,ESE,113,3.0,7.0,84,0.00,,,0.00,weatherlink.com 1.10,2013-05-18 23:23:00,
2013-05-18 19:38:00,60.5,56.0,30.25,ESE,118,3.0,6.0,84,0.00,,,0.00,weatherlink.com 1.10,2013-05-18 23:38:00,
2013-05-18 19:53:00,60.5,56.0,30.25,East,101,2.0,5.0,84,0.00,,,0.00,weatherlink.com 1.10,2013-05-18 23:53:00,
2013-05-18 20:08:00,60.4,56.0,30.25,East,85,5.0,8.0,84,0.00,,,0.00,weatherlink.com 1.10,2013-05-19 00:08:00,
2013-05-18 20:23:00,60.0,56.0,30.25,ESE,104,4.0,6.0,85,0.00,,,0.00,weatherlink.com 1.10,2013-05-19 00:23:00,
2013-05-18 20:38:00,59.6,56.0,30.25,ENE,74,1.0,6.0,86,0.00,,,0.00,weatherlink.com 1.10,2013-05-19 00:38:00,
2013-05-18 20:53:00,59.1,55.0,30.25,ENE,67,1.0,4.0,86,0.00,,,0.00,weatherlink.com 1.10,2013-05-19 00:53:00,
2013-05-18 21:08:00,58.9,55.0,30.26,East,98,2.0,5.0,86,0.03,,,0.03,weatherlink.com 1.10,2013-05-19 01:08:00,
2013-05-18 21:23:00,58.4,54.0,30.26,ENE,74,5.0,5.0,86,0.05,,,0.05,weatherlink.com 1.10,2013-05-19 01:23:00,
2013-05-18 21:38:00,58.2,54.0,30.26,East,90,3.0,7.0,86,0.07,,,0.07,weatherlink.com 1.10,2013-05-19 01:38:00,
2013-05-18 21:53:00,58.1,54.0,30.26,East,95,5.0,6.0,86,0.08,,,0.08,weatherlink.com 1.10,2013-05-19 01:53:00,
2013-05-18 22:08:00,58.0,54.0,30.26,ENE,77,5.0,8.0,86,0.05,,,0.08,weatherlink.com 1.10,2013-05-19 02:08:00,
2013-05-18 22:23:00,57.8,53.0,30.26,East,87,4.0,6.0,85,0.02,,,0.08,weatherlink.com 1.10,2013-05-19 02:23:00,
2013-05-18 22:38:00,57.6,53.0,30.26,ESE,115,5.0,6.0,85,0.01,,,0.08,weatherlink.com 1.10,2013-05-19 02:38:00,
2013-05-18 22:53:00,57.6,53.0,30.26,ESE,110,3.0,6.0,85,0.00,,,0.08,weatherlink.com 1.10,2013-05-19 02:53:00,
2013-05-18 23:08:00,57.5,53.0,30.26,ESE,123,4.0,5.0,84,0.01,,,0.09,weatherlink.com 1.10,2013-05-19 03:08:00,
2013-05-18 23:23:00,57.5,53.0,30.25,East,94,4.0,7.0,84,0.02,,,0.10,weatherlink.com 1.10,2013-05-19 03:23:00,
2013-05-18 23:38:00,57.3,53.0,30.25,East,101,9.0,13.0,85,0.02,,,0.10,weatherlink.com 1.10,2013-05-19 03:38:00,
2013-05-18 23:53:00,57.1,53.0,30.25,ESE,114,8.0,8.0,85,0.02,,,0.10,weatherlink.com 1.10,2013-05-19 03:53:00,